Time,TemperatureF,DewpointF,PressureIn,WindDirection,WindDirectionDegrees,WindSpeedMPH,WindSpeedGustMPH,Humidity,HourlyPrecipIn,Conditions,Clouds,dailyrainin,SoftwareType,DateUTC
2013-03-27 00:07:00,25.5,22.0,29.81,NW,310,0.0,-999.0,85,-99.99,,,0.00,weatherlink.com 1.10,2013-03-27 04:07:00,
2013-03-27 00:22:00,25.3,22.0,29.81,NW,310,0.0,-999.0,86,-99.99,,,0.00,weatherlink.com 1.10,2013-03-27 04:22:00,
2013-03-27 00:37:00,25.1,22.0,29.81,NW,310,0.0,-999.0,86,-99.99,,,0.00,weatherlink.com 1.10,2013-03-27 04:37:00,
2013-03-27 00:52:00,24.8,21.0,29.81,NW,310,0.0,-999.0,86,-99.99,,,0.00,weatherlink.com 1.10,2013-03-27 04:52:00,
2013-03-27 01:07:00,24.7,21.0,29.82,NW,310,0.0,-999.0,86,-99.99,,,0.00,weatherlink.com 1.10,2013-03-27 05:07:00,
2013-03-27 01:22:00,24.8,22.0,29.82,NW,310,0.0,-999.0,87,-99.99,,,0.00,weatherlink.com 1.10,2013-03-27 05:22:00,
2013-03-27 01:37:00,24.8,22.0,29.82,NW,310,0.0,-999.0,87,-99.99,,,0.00,weatherlink.com 1.10,2013-03-27 05:37:00,
2013-03-27 01:52:00,24.9,21.0,29.82,NW,310,0.0,-999.0,86,-99.99,,,0.00,weatherlink.com 1.10,2013-03-27 05:52:00,
2013-03-27 02:07:00,25.1,22.0,29.82,NW,310,0.0,-999.0,86,-99.99,,,0.00,weatherlink.com 1.10,2013-03-27 06:07:00,
2013-03-27 02:22:00,25.2,21.0,29.82,NW,310,0.0,-999.0,85,-99.99,,,0.00,weatherlink.com 1.10,2013-03-27 06:22:00,
2013-03-27 02:37:00,25.3,21.0,29.81,NW,310,0.0,-999.0,85,-99.99,,,0.00,weatherlink.com 1.10,2013-03-27 06:37:00,
2013-03-27 02:52:00,25.4,21.0,29.81,NW,310,0.0,-999.0,84,-99.99,,,0.00,weatherlink.com 1.10,2013-03-27 06:52:00,
2013-03-27 03:07:00,25.6,21.0,29.81,NW,310,0.0,-999.0,83,-99.99,,,0.00,weatherlink.com 1.10,2013-03-27 07:07:00,
2013-03-27 03:22:00,26.4,21.0,29.81,NW,310,0.0,-999.0,80,-99.99,,,0.00,weatherlink.com 1.10,2013-03-27 07:22:00,
2013-03-27 03:37:00,28.4,21.0,29.81,NNW,337,0.0,-999.0,75,-99.99,,,0.00,weatherlink.com 1.10,2013-03-27 07:37:00,
2013-03-27 03:52:00,29.2,22.0,29.81,NNW,337,0.0,-999.0,74,-99.99,,,0.00,weatherlink.com 1.10,2013-03-27 07:52:00,
2013-03-27 04:07:00,29.1,22.0,29.80,NNW,337,0.0,-999.0,74,-99.99,,,0.00,weatherlink.com 1.10,2013-03-27 08:07:00,
2013-03-27 04:22:00,28.4,22.0,29.80,NNW,337,0.0,-999.0,76,-99.99,,,0.00,weatherlink.com 1.10,2013-03-27 08:22:00,
2013-03-27 04:37:00,27.5,22.0,29.80,NNW,337,0.0,-999.0,79,-99.99,,,0.00,weatherlink.com 1.10,2013-03-27 08:37:00,
2013-03-27 04:52:00,26.7,21.0,29.81,NNW,337,0.0,-999.0,80,-99.99,,,0.00,weatherlink.com 1.10,2013-03-27 08:52:00,
2013-03-27 05:07:00,25.9,21.0,29.81,NNW,337,0.0,-999.0,80,-99.99,,,0.00,weatherlink.com 1.10,2013-03-27 09:07:00,
2013-03-27 05:22:00,25.3,20.0,29.81,NNW,337,0.0,-999.0,81,-99.99,,,0.00,weatherlink.com 1.10,2013-03-27 09:22:00,
2013-03-27 05:37:00,24.6,20.0,29.81,NNW,337,0.0,-999.0,82,-99.99,,,0.00,weatherlink.com 1.10,2013-03-27 09:37:00,
2013-03-27 05:52:00,24.1,19.0,29.82,NNW,337,0.0,-999.0,82,-99.99,,,0.00,weatherlink.com 1.10,2013-03-27 09:52:00,
2013-03-27 06:07:00,23.7,19.0,29.82,NNW,337,0.0,-999.0,83,-99.99,,,0.00,weatherlink.com 1.10,2013-03-27 10:07:00,
2013-03-27 06:22:00,23.3,19.0,29.83,NNW,337,0.0,-999.0,84,-99.99,,,0.00,weatherlink.com 1.10,2013-03-27 10:22:00,
2013-03-27 06:37:00,23.1,19.0,29.84,NNW,337,0.0,-999.0,85,-99.99,,,0.00,weatherlink.com 1.10,2013-03-27 10:37:00,
2013-03-27 06:53:00,22.8,19.0,29.84,NNW,337,0.0,-999.0,85,-99.99,,,0.00,weatherlink.com 1.10,2013-03-27 10:53:00,
2013-03-27 07:08:00,22.5,19.0,29.84,NNW,337,0.0,-999.0,85,-99.99,,,0.00,weatherlink.com 1.10,2013-03-27 11:08:00,
2013-03-27 07:23:00,22.2,19.0,29.84,NNW,337,0.0,-999.0,86,-99.99,,,0.00,weatherlink.com 1.10,2013-03-27 11:23:00,
2013-03-27 07:38:00,22.4,19.0,29.85,NNW,337,0.0,-999.0,87,-99.99,,,0.00,weatherlink.com 1.10,2013-03-27 11:38:00,
2013-03-27 07:53:00,22.9,20.0,29.85,NNW,337,0.0,-999.0,88,-99.99,,,0.00,weatherlink.com 1.10,2013-03-27 11:53:00,
2013-03-27 08:08:00,24.5,22.0,29.86,NNW,337,0.0,-999.0,90,-99.99,,,0.00,weatherlink.com 1.10,2013-03-27 12:08:00,
2013-03-27 08:23:00,27.8,26.0,29.86,WSW,246,0.0,-999.0,91,-99.99,,,0.00,weatherlink.com 1.10,2013-03-27 12:23:00,
2013-03-27 08:38:00,30.4,26.0,29.86,WSW,246,0.0,-999.0,83,-99.99,,,0.00,weatherlink.com 1.10,2013-03-27 12:38:00,
2013-03-27 08:53:00,32.9,25.0,29.86,WNW,298,0.0,-999.0,74,-99.99,,,0.00,weatherlink.com 1.10,2013-03-27 12:53:00,
2013-03-27 09:08:00,34.2,25.0,29.86,West,277,0.0,-999.0,69,-99.99,,,0.00,weatherlink.com 1.10,2013-03-27 13:08:00,
2013-03-27 09:23:00,35.3,26.0,29.86,WSW,255,1.0,-999.0,69,-99.99,,,0.00,weatherlink.com 1.10,2013-03-27 13:23:00,
2013-03-27 09:38:00,36.1,26.0,29.86,WNW,286,1.0,-999.0,67,-99.99,,,0.00,weatherlink.com 1.10,2013-03-27 13:38:00,
2013-03-27 09:53:00,37.0,27.0,29.86,NW,322,3.0,-999.0,67,-99.99,,,0.00,weatherlink.com 1.10,2013-03-27 13:53:00,
2013-03-27 10:08:00,37.3,26.0,29.86,NNW,340,2.0,-999.0,65,-99.99,,,0.00,weatherlink.com 1.10,2013-03-27 14:08:00,
2013-03-27 10:23:00,37.8,27.0,29.86,NNW,330,4.0,-999.0,65,-99.99,,,0.00,weatherlink.com 1.10,2013-03-27 14:23:00,
2013-03-27 10:38:00,38.6,27.0,29.85,NW,316,1.0,-999.0,64,-99.99,,,0.00,weatherlink.com 1.10,2013-03-27 14:38:00,
2013-03-27 10:53:00,39.7,27.0,29.86,WNW,285,2.0,-999.0,62,-99.99,,,0.00,weatherlink.com 1.10,2013-03-27 14:53:00,
2013-03-27 11:08:00,40.6,29.0,29.86,NNW,333,4.0,-999.0,63,-99.99,,,0.00,weatherlink.com 1.10,2013-03-27 15:08:00,
2013-03-27 11:23:00,41.5,29.0,29.85,NNW,335,3.0,-999.0,61,-99.99,,,0.00,weatherlink.com 1.10,2013-03-27 15:23:00,
2013-03-27 11:38:00,42.2,29.0,29.85,West,280,0.0,-999.0,60,-99.99,,,0.00,weatherlink.com 1.10,2013-03-27 15:38:00,
2013-03-27 11:53:00,43.4,29.0,29.84,West,271,5.0,-999.0,57,-99.99,,,0.00,weatherlink.com 1.10,2013-03-27 15:53:00,
2013-03-27 12:08:00,43.9,28.0,29.84,SW,230,1.0,-999.0,53,-99.99,,,0.00,weatherlink.com 1.10,2013-03-27 16:08:00,
2013-03-27 12:23:00,44.5,28.0,29.84,NW,314,2.0,-999.0,53,-99.99,,,0.00,weatherlink.com 1.10,2013-03-27 16:23:00,
2013-03-27 12:39:00,45.4,30.0,29.84,NNW,343,5.0,-999.0,55,-99.99,,,0.00,weatherlink.com 1.10,2013-03-27 16:39:00,
2013-03-27 12:54:00,44.5,27.0,29.84,NNW,334,9.0,-999.0,51,-99.99,,,0.00,weatherlink.com 1.10,2013-03-27 16:54:00,
2013-03-27 13:09:00,43.7,27.0,29.84,WNW,293,3.0,-999.0,53,-99.99,,,0.00,weatherlink.com 1.10,2013-03-27 17:09:00,
2013-03-27 13:24:00,44.2,27.0,29.83,North,355,10.0,-999.0,51,-99.99,,,0.00,weatherlink.com 1.10,2013-03-27 17:24:00,
2013-03-27 13:39:00,43.6,29.0,29.85,WNW,294,5.0,-999.0,57,-99.99,,,0.00,weatherlink.com 1.10,2013-03-27 17:39:00,
2013-03-27 13:54:00,41.1,27.0,29.84,NW,306,3.0,-999.0,57,-99.99,,,0.00,weatherlink.com 1.10,2013-03-27 17:54:00,
2013-03-27 14:24:00,45.3,27.0,29.82,NNW,327,5.0,-999.0,50,-99.99,,,0.00,weatherlink.com 1.10,2013-03-27 18:24:00,
2013-03-27 14:39:00,44.7,26.0,29.82,West,266,4.0,-999.0,48,-99.99,,,0.00,weatherlink.com 1.10,2013-03-27 18:39:00,
2013-03-27 14:54:00,43.6,27.0,29.83,NW,312,10.0,-999.0,52,-99.99,,,0.00,weatherlink.com 1.10,2013-03-27 18:54:00,
2013-03-27 15:09:00,42.3,26.0,29.83,NNW,346,4.0,-999.0,53,-99.99,,,0.00,weatherlink.com 1.10,2013-03-27 19:09:00,
2013-03-27 15:24:00,43.9,26.0,29.82,NNW,339,2.0,-999.0,50,-99.99,,,0.00,weatherlink.com 1.10,2013-03-27 19:24:00,
2013-03-27 15:39:00,44.5,27.0,29.82,NNW,329,9.0,-999.0,51,-99.99,,,0.00,weatherlink.com 1.10,2013-03-27 19:39:00,
2013-03-27 15:54:00,45.2,26.0,29.83,NNW,344,5.0,-999.0,47,-99.99,,,0.00,weatherlink.com 1.10,2013-03-27 19:54:00,
2013-03-27 16:09:00,45.1,26.0,29.82,WNW,284,9.0,-999.0,48,-99.99,,,0.00,weatherlink.com 1.10,2013-03-27 20:09:00,
2013-03-27 16:24:00,46.1,25.0,29.82,WNW,300,3.0,-999.0,44,-99.99,,,0.00,weatherlink.com 1.10,2013-03-27 20:24:00,
2013-03-27 16:39:00,46.0,27.0,29.82,West,262,3.0,-999.0,47,-99.99,,,0.00,weatherlink.com 1.10,2013-03-27 20:39:00,
2013-03-27 17:09:00,45.2,24.0,29.83,NNW,329,4.0,-999.0,43,-99.99,,,0.00,weatherlink.com 1.10,2013-03-27 21:09:00,
2013-03-27 17:24:00,44.7,24.0,29.83,WSW,258,5.0,-999.0,44,-99.99,,,0.00,weatherlink.com 1.10,2013-03-27 21:24:00,
2013-03-27 17:39:00,44.8,24.0,29.83,West,262,3.0,-999.0,44,-99.99,,,0.00,weatherlink.com 1.10,2013-03-27 21:39:00,
2013-03-27 17:54:00,44.6,25.0,29.83,NW,317,5.0,-999.0,46,-99.99,,,0.00,weatherlink.com 1.10,2013-03-27 21:54:00,
2013-03-27 18:09:00,44.6,23.0,29.84,NW,321,6.0,-999.0,43,-99.99,,,0.00,weatherlink.com 1.10,2013-03-27 22:09:00,
2013-03-27 18:24:00,44.2,24.0,29.85,NW,321,2.0,-999.0,45,-99.99,,,0.00,weatherlink.com 1.10,2013-03-27 22:24:00,
2013-03-27 18:39:00,44.1,23.0,29.85,NW,304,4.0,-999.0,44,-99.99,,,0.00,weatherlink.com 1.10,2013-03-27 22:39:00,
2013-03-27 18:54:00,43.5,24.0,29.85,WNW,299,3.0,-999.0,47,-99.99,,,0.00,weatherlink.com 1.10,2013-03-27 22:54:00,
2013-03-27 19:09:00,42.7,25.0,29.86,North,360,6.0,-999.0,49,-99.99,,,0.00,weatherlink.com 1.10,2013-03-27 23:09:00,
2013-03-27 19:24:00,41.8,25.0,29.86,NNW,338,2.0,-999.0,51,-99.99,,,0.00,weatherlink.com 1.10,2013-03-27 23:24:00,
2013-03-27 19:39:00,41.0,24.0,29.87,NNW,338,4.0,-999.0,52,-99.99,,,0.00,weatherlink.com 1.10,2013-03-27 23:39:00,
2013-03-27 19:54:00,40.4,25.0,29.88,West,281,2.0,-999.0,54,-99.99,,,0.00,weatherlink.com 1.10,2013-03-27 23:54:00,
2013-03-27 20:09:00,40.2,25.0,29.89,WNW,287,5.0,-999.0,54,-99.99,,,0.00,weatherlink.com 1.10,2013-03-28 00:09:00,
2013-03-27 20:24:00,40.0,24.0,29.89,NNW,337,3.0,-999.0,53,-99.99,,,0.00,weatherlink.com 1.10,2013-03-28 00:24:00,
2013-03-27 20:39:00,39.5,24.0,29.89,NW,317,2.0,-999.0,55,-99.99,,,0.00,weatherlink.com 1.10,2013-03-28 00:39:00,
2013-03-27 20:54:00,39.0,25.0,29.90,NW,322,4.0,-999.0,57,-99.99,,,0.00,weatherlink.com 1.10,2013-03-28 00:54:00,
2013-03-27 21:09:00,38.6,25.0,29.90,WNW,299,2.0,-999.0,58,-99.99,,,0.00,weatherlink.com 1.10,2013-03-28 01:09:00,
2013-03-27 21:24:00,38.2,25.0,29.90,NW,319,0.0,-999.0,59,-99.99,,,0.00,weatherlink.com 1.10,2013-03-28 01:24:00,
2013-03-27 21:39:00,37.8,25.0,29.91,NW,326,2.0,-999.0,61,-99.99,,,0.00,weatherlink.com 1.10,2013-03-28 01:39:00,
2013-03-27 21:54:00,37.4,25.0,29.91,WNW,298,3.0,-999.0,62,-99.99,,,0.00,weatherlink.com 1.10,2013-03-28 01:54:00,
2013-03-27 22:09:00,37.2,26.0,29.91,WNW,288,3.0,-999.0,63,-99.99,,,0.00,weatherlink.com 1.10,2013-03-28 02:09:00,
2013-03-27 22:24:00,37.1,26.0,29.91,WNW,294,0.0,-999.0,64,-99.99,,,0.00,weatherlink.com 1.10,2013-03-28 02:24:00,
2013-03-27 22:39:00,36.9,26.0,29.91,NW,311,2.0,-999.0,65,-99.99,,,0.00,weatherlink.com 1.10,2013-03-28 02:39:00,
2013-03-27 22:54:00,36.9,26.0,29.91,WNW,302,3.0,-999.0,65,-99.99,,,0.00,weatherlink.com 1.10,2013-03-28 02:54:00,
2013-03-27 23:09:00,37.0,27.0,29.91,NW,323,4.0,-999.0,66,-99.99,,,0.00,weatherlink.com 1.10,2013-03-28 03:09:00,
2013-03-27 23:24:00,37.0,27.0,29.91,NW,320,4.0,-999.0,66,-99.99,,,0.00,weatherlink.com 1.10,2013-03-28 03:24:00,
2013-03-27 23:39:00,36.8,26.0,29.91,NW,313,6.0,-999.0,66,-99.99,,,0.00,weatherlink.com 1.10,2013-03-28 03:39:00,
2013-03-27 23:54:00,36.7,27.0,29.91,NW,320,3.0,-999.0,68,-99.99,,,0.00,weatherlink.com 1.10,2013-03-28 03:54:00,